CAPE
0 0 0 0 0 0 0 0 0 0 0 0 0 0 0 0 0 0 0 0 0 0 0 0 0 0 0 0 0 0 0 0 0 0 85 0 0 9 1 70 215 134 130 140
0 0 0 0 0 0 0 0 0 0 0 0 0 0 0 0 0 0 0 0 0 0 0 0 0 0 0 0 0 0 0 0 0 0 0 0 0 0 0 0 0 0 0 0
0 0 0 0 0 0 0 0 0 0 0 0 0 0 0 0 0 0 0 0 0 0 0 0 0 0 0 0 0 0 0 0 0 0 0 0 0 0 0 0 0 0 0 0
0 0 0 0 0 0 0 0 0 0 0 0 0 0 0 0 0 0 0 0 0 0 0 0 0 0 0 0 0 0 0 0 0 0 0 0 0 0 0 0 0 0 0 0
0 0 0 0 0 0 0 0 0 0 0 0 0 0 0 0 0 0 0 0 0 0 0 0 0 0 0 0 0 0 0 0 0 0 0 0 0 0 0 0 0 0 0 0
0 0 0 0 0 0 0 0 0 0 0 0 0 0 0 0 0 0 0 0 0 0 0 0 0 0 0 0 0 0 0 0 0 0 0 0 0 0 0 0 0 0 0 0
0 0 0 0 0 0 0 3 2 0 0 0 0 0 0 0 0 0 0 0 0 0 0 0 0 0 0 0 0 0 0 0 0 0 0 0 0 0 0 0 0 0 0 0
0 0 0 0 0 0 0 2 0 0 0 0 0 0 0 0 0 0 0 0 0 0 0 0 0 0 0 0 0 0 0 0 0 0 0 0 0 0 0 0 0 0 0 0
0 0 0 0 0 0 0 6 0 0 0 0 0 0 0 0 0 0 0 0 0 0 0 0 0 0 0 0 0 0 0 0 0 0 0 0 0 0 0 0 0 0 0 0
0 0 0 0 0 0 1 0 0 0 0 0 0 0 0 0 0 0 0 0 0 0 0 0 0 0 0 0 0 0 0 0 0 0 0 0 0 0 0 0 0 0 0 0
0 0 0 0 0 0 0 1 4 0 0 0 0 0 0 0 0 0 0 0 0 0 0 0 0 0 0 0 0 0 0 0 0 0 0 0 0 0 0 0 0 0 0 0
0 0 0 0 0 0 0 0 0 0 0 0 0 0 0 0 0 0 0 0 0 0 0 0 0 0 0 0 0 0 0 0 0 0 0 0 0 0 0 0 0 0 0 0
0 0 5 0 0 0 0 0 0 0 0 0 0 0 0 0 0 0 0 0 0 0 0 0 0 0 0 0 0 0 0 0 0 0 0 0 0 0 0 0 0 0 0 0
0 0 0 0 0 0 0 0 0 0 0 0 0 0 0 0 0 0 0 0 0 0 0 0 0 0 0 0 0 0 0 0 0 0 0 0 0 0 0 0 0 0 0 0
0 0 3 1 0 0 0 0 0 0 0 0 0 0 0 0 0 0 0 0 0 0 0 0 0 0 0 0 0 0 0 0 0 0 0 0 0 0 0 0 0 0 0 0
0 0 0 1 0 0 0 0 0 0 0 0 0 0 0 0 0 0 0 0 0 0 0 0 0 0 0 0 0 0 0 0 0 0 0 0 0 0 0 0 0 0 0 0
0 0 0 0 0 0 0 0 0 0 0 0 0 0 0 0 0 0 0 0 0 0 0 0 0 0 0 0 0 0 0 0 0 0 0 0 0 0 0 0 0 0 0 0
0 0 0 0 0 0 0 0 0 0 0 0 0 0 0 0 0 0 0 0 0 0 0 0 0 0 0 0 0 0 0 0 0 0 0 0 0 0 0 0 0 0 0 0
0 0 0 0 0 0 0 0 0 0 0 0 0 0 0 0 0 0 0 0 0 0 0 0 0 0 0 0 0 0 0 0 0 0 0 0 0 0 0 0 0 0 0 0
0 0 2 0 0 0 0 0 0 0 0 0 0 0 0 0 0 0 0 0 0 0 0 0 0 0 0 0 0 0 0 0 0 0 0 0 0 0 0 0 0 1 0 0
1 0 0 0 0 0 0 0 0 0 0 0 0 0 0 0 0 0 0 0 0 0 0 0 0 0 0 0 0 0 0 0 0 0 0 0 0 0 0 0 0 0 0 0
0 0 0 0 0 0 0 0 0 0 0 0 0 0 0 0 0 0 0 0 0 0 0 0 0 0 0 0 0 0 0 0 0 0 0 0 1 1 1 1 0 0 0 1
0 0 0 0 0 0 0 0 0 0 0 0 0 0 0 0 0 0 0 0 0 0 0 0 0 0 0 0 0 0 0 0 0 0 0 1 0 0 1 1 0 0 1 1
0 0 0 0 0 0 0 0 0 0 0 0 0 0 0 0 0 0 0 0 0 0 0 0 0 0 0 0 0 0 0 0 0 0 0 1 1 0 1 1 1 1 1 1
0 0 0 0 0 0 0 0 0 0 0 0 0 0 0 0 0 0 0 0 0 0 0 0 0 0 0 0 0 0 0 0 0 0 0 0 0 0 0 0 1 1 0 0
0 0 0 0 0 0 0 0 0 0 0 0 0 0 0 0 0 0 0 0 0 0 0 0 0 0 0 0 0 0 0 0 0 0 0 0 0 0 0 0 1 0 0 0
CIN
0 0 0 0 0 0 0 0 0 0 0 0 0 0 0 0 0 0 0 0 0 0 0 0 0 0 0 0 0 0 0 0 0 -2 -247 -1 0 -319 -1 -222 -101 -140 -164 -190
0 0 0 0 0 0 0 0 0 0 0 0 0 0 0 0 0 0 0 0 0 0 0 0 0 0 0 0 0 0 0 0 0 0 0 0 0 0 0 0 0 0 0 0
0 0 0 0 0 0 0 0 0 0 0 0 0 0 0 0 0 0 0 0 0 0 0 0 0 0 0 0 0 0 0 0 0 0 0 0 0 0 0 0 0 0 0 0
0 0 0 0 0 0 0 0 0 0 0 0 0 0 0 0 0 0 0 0 0 0 0 0 0 0 0 0 0 0 0 0 0 0 0 0 0 0 0 0 0 0 0 0
0 0 0 0 0 0 0 0 0 0 0 0 0 0 0 0 0 0 0 0 0 0 0 0 0 0 0 0 0 0 0 0 0 0 0 0 0 0 0 0 0 0 0 0
0 0 0 0 0 0 0 0 0 0 0 0 0 0 0 0 0 0 0 0 0 0 0 0 0 0 0 0 0 0 0 0 0 0 0 0 0 0 0 0 0 0 0 0
0 0 0 0 0 0 0 -4 -5 0 0 0 0 0 0 0 0 0 0 0 0 0 0 0 0 0 0 0 0 0 0 0 0 0 0 0 0 0 0 0 0 0 0 0
0 0 0 0 0 0 0 -11 0 0 0 0 0 0 0 0 0 0 0 0 0 0 0 0 0 0 0 0 0 0 0 0 0 0 0 0 0 0 0 0 0 0 0 0
0 0 0 0 0 0 0 -12 0 -3 0 0 0 0 0 0 0 0 0 0 0 0 0 0 0 0 0 0 0 0 0 0 0 0 0 0 0 0 0 0 0 0 0 0
0 0 0 0 0 0 -17 0 0 0 0 0 0 0 0 0 0 0 0 0 0 0 0 0 0 0 0 0 0 0 0 0 0 0 0 0 0 0 0 0 0 0 0 0
0 0 0 0 0 0 0 -2 -12 -9 0 0 0 0 0 0 0 0 0 0 0 0 0 0 0 0 0 0 0 0 0 0 0 0 0 0 0 0 0 0 0 0 0 0
0 0 0 0 0 0 0 0 0 0 0 0 0 0 0 0 0 0 0 0 0 0 0 0 0 0 0 0 0 0 0 0 0 0 0 0 0 0 0 0 0 0 0 0
0 -2 -2 0 0 0 0 0 0 0 0 0 0 0 0 0 0 0 0 0 0 0 0 0 0 0 0 0 0 0 0 0 0 0 0 0 0 0 0 0 0 0 0 0
0 0 0 0 0 0 0 0 0 0 0 0 0 0 0 0 0 0 0 0 0 0 0 0 0 0 0 0 0 0 0 0 0 0 0 0 0 0 0 0 0 0 0 0
0 0 -3 -8 0 0 0 0 0 0 0 0 0 0 0 0 0 0 0 0 0 0 0 0 0 0 0 0 0 0 0 0 0 0 0 0 0 0 0 0 0 0 0 0
0 0 0 -8 0 0 0 0 0 0 0 0 0 0 0 0 0 0 0 0 0 0 0 0 0 0 0 0 0 0 0 0 0 0 0 0 0 0 0 0 0 0 0 0
0 0 0 0 0 0 0 0 0 0 0 0 0 0 0 0 0 0 0 0 0 0 0 0 0 0 0 0 0 0 0 0 0 0 0 0 0 0 0 0 0 0 0 0
0 0 0 0 0 0 0 0 0 0 0 0 0 0 0 0 0 0 0 0 0 0 0 0 0 0 0 0 0 0 0 0 0 0 0 0 0 0 0 0 0 0 0 0
0 0 0 0 0 0 0 0 0 0 0 0 0 0 0 0 0 0 0 0 0 0 0 0 0 0 0 0 0 0 0 0 0 0 0 0 0 0 0 0 0 0 0 0
0 -2 0 0 0 0 0 0 0 0 0 0 0 0 0 0 0 0 0 0 0 0 0 0 0 0 0 0 0 0 0 0 0 0 0 0 0 -1 0 0 0 -2 0 0
0 0 0 0 0 0 0 0 0 0 0 0 0 0 0 0 0 0 0 0 0 0 0 0 0 0 0 0 0 0 0 0 0 0 0 0 0 0 0 -2 0 0 0 0
0 0 0 0 0 0 0 0 0 0 0 0 0 0 0 0 0 0 0 0 0 0 0 0 0 0 0 0 0 0 0 0 0 0 0 0 0 0 0 0 0 0 0 0
0 0 0 0 0 0 0 0 0 0 0 0 0 0 0 0 0 0 0 0 0 0 0 0 0 0 0 0 0 0 0 0 0 0 0 0 0 0 0 0 0 0 0 0
0 0 0 0 0 0 0 0 0 0 0 0 0 0 0 0 0 0 0 0 0 0 0 0 0 0 0 0 0 0 0 0 0 0 0 0 0 0 0 0 0 0 0 0
0 0 0 0 0 0 0 0 0 0 0 0 0 0 0 0 0 0 0 0 0 0 0 0 0 0 0 0 0 0 0 0 0 0 0 -1 0 0 0 0 0 0 0 0
0 0 0 0 0 0 0 0 0 0 0 0 0 0 0 0 0 0 0 0 0 0 0 0 0 0 0 0 0 0 0 0 0 0 0 0 0 0 0 0 0 0 0 0
Wind_Speed
16 22 15 14 15 21 25 24 26 23 25 32 33 18 12 12 14 7 9 8 6 4 3 4 6 8 10 12 12 12 11 12 12 12 13 15 18 19 21 22 23 25 25 25
25 24 16 23 21 21 26 27 30 31 31 26 20 20 24 20 9 8 10 9 7 4 2 3 4 7 9 10 11 11 12 12 14 16 17 18 19 20 22 25 26 28 29 28
28 28 23 23 23 23 23 22 22 22 32 29 24 23 22 24 19 10 11 10 7 7 4 2 3 5 7 9 10 11 12 13 15 17 18 20 21 24 26 29 30 31 31 30
38 30 30 23 23 18 23 19 25 27 26 22 16 24 15 18 22 15 10 11 10 8 5 3 1 4 6 8 10 11 12 13 16 19 22 24 26 29 29 30 31 33 34 35
32 28 26 24 18 17 21 24 24 25 24 25 24 26 17 20 19 16 12 13 12 10 7 5 2 2 4 6 8 10 12 15 17 21 24 27 30 30 31 33 36 37 37 37
34 27 22 22 23 23 20 23 23 23 25 28 19 23 26 17 17 17 12 11 12 11 8 5 2 0 3 7 9 10 13 17 21 25 28 31 34 35 36 37 39 40 39 38
38 37 33 30 30 24 20 20 23 27 27 26 21 26 20 21 16 13 13 14 13 10 8 6 4 2 4 7 9 13 17 20 24 28 31 33 34 34 35 38 39 40 39 36
36 42 29 26 27 26 26 22 23 25 28 35 25 28 22 26 22 13 10 12 11 9 7 6 3 3 5 8 11 15 18 22 27 30 31 33 34 34 35 35 36 36 35 34
35 42 29 27 29 26 27 26 20 29 29 29 24 25 24 18 11 9 11 12 10 8 7 4 2 4 8 11 14 17 21 26 30 32 34 36 35 37 36 36 36 36 35 36
33 38 28 23 21 31 26 22 21 23 28 30 29 29 22 12 8 9 13 12 10 8 6 4 4 7 10 13 16 19 23 27 29 31 33 34 35 35 35 35 37 37 37 37
36 33 27 23 23 24 25 24 24 23 25 25 28 27 21 12 11 12 14 13 11 9 7 6 7 9 11 14 17 21 25 28 31 32 35 36 38 38 39 39 39 39 39 39
30 34 38 33 24 23 27 26 25 25 23 25 30 30 24 9 11 12 13 13 10 9 8 8 10 12 14 16 20 24 28 32 33 35 36 38 39 40 41 42 42 42 43 42
27 34 36 35 44 29 26 26 25 27 26 28 28 28 18 9 11 12 13 12 12 11 10 11 13 13 16 20 24 26 29 33 35 37 40 41 41 42 42 43 44 44 43 43
24 32 33 34 30 29 26 24 25 27 30 26 27 26 19 15 15 14 14 13 12 11 12 12 14 16 18 20 24 28 32 35 37 39 40 41 42 42 42 41 42 42 41 40
29 38 32 31 31 24 27 25 25 29 30 30 28 29 20 18 18 17 16 14 13 13 13 14 15 16 19 23 26 30 33 35 36 39 40 41 41 40 41 42 42 42 41 41
26 31 28 28 28 27 28 27 26 26 26 29 27 29 22 19 16 17 17 16 15 14 15 14 17 19 22 26 28 30 33 35 36 38 40 39 41 42 42 43 43 42 42 42
28 27 25 31 27 31 42 29 25 27 26 27 30 29 21 21 22 21 18 17 16 15 14 16 18 21 24 27 28 31 34 34 37 38 38 41 42 42 42 42 41 40 42 42
27 26 26 30 26 38 35 23 25 29 32 30 31 30 24 22 21 19 17 15 14 14 15 17 18 21 24 26 29 31 33 35 36 39 41 41 41 41 40 39 40 40 38 38
25 27 30 32 35 36 33 26 26 27 36 34 32 28 19 16 15 19 15 14 14 14 14 16 18 21 24 27 29 31 34 36 38 40 40 38 37 38 38 38 37 37 36 34
25 30 34 29 39 43 32 26 22 23 38 27 23 22 20 19 26 22 14 12 12 12 14 16 18 21 25 28 30 33 36 37 37 36 36 35 35 34 34 35 34 31 30 28
27 29 35 36 40 38 28 22 17 30 33 23 17 17 16 21 23 13 10 11 11 13 15 16 19 24 26 28 32 34 32 33 33 32 32 33 32 32 32 31 31 30 25 23
31 32 34 33 36 44 23 23 29 28 23 16 10 11 12 11 8 9 9 10 11 12 14 18 22 25 26 28 29 30 31 31 30 30 30 30 32 32 31 30 29 27 24 25
33 29 31 30 34 28 21 25 20 16 12 10 5 6 7 7 7 8 8 8 10 12 16 19 22 24 24 26 27 29 29 29 29 29 29 31 33 32 32 32 30 27 26 28
30 28 32 30 31 28 22 16 14 10 7 5 3 4 5 5 5 5 6 8 11 13 16 18 19 21 23 25 25 26 26 27 28 28 30 32 33 33 33 31 29 27 28 29
29 25 28 31 26 18 16 13 10 8 5 4 3 3 3 3 4 5 7 10 12 14 15 17 18 20 22 22 23 24 24 26 27 29 31 33 32 34 34 32 31 30 26 27
28 26 28 32 22 22 17 12 10 9 8 6 4 5 4 4 5 6 9 10 11 12 14 17 18 18 18 19 21 22 23 25 27 31 32 33 35 35 35 36 34 30 26 24
Wind_Direction
280 277 271 270 286 301 297 295 285 286 287 297 291 291 270 284 295 265 204 220 255 282 340 349 0 14 14 14 17 19 17 10 16 11 4 357 350 348 347 346 344 340 336 334
271 264 253 295 299 292 291 287 282 280 283 297 300 287 285 291 288 236 217 233 236 243 273 312 359 4 7 11 13 14 16 11 2 357 354 351 349 347 344 341 339 336 332 330
255 274 283 288 291 293 288 281 282 280 280 292 294 289 285 282 294 280 228 230 225 219 216 263 324 360 359 1 7 4 4 2 359 358 353 348 345 342 339 335 334 333 333 329
268 268 276 282 283 285 286 281 280 281 282 281 285 284 267 281 285 282 242 223 215 207 205 206 290 331 342 351 360 6 5 1 355 351 346 340 335 331 332 332 332 329 328 324
266 267 263 262 264 275 284 287 280 280 287 286 278 287 277 278 265 270 249 224 209 205 202 199 245 323 2 10 12 7 359 351 349 346 342 336 331 330 330 329 327 327 326 324
262 275 270 260 272 274 284 285 286 285 282 268 267 279 286 268 266 271 246 216 203 197 202 200 222 110 17 2 360 357 347 338 337 335 334 331 327 327 327 326 325 324 323 324
263 265 269 274 272 274 268 268 276 280 273 267 282 280 262 287 274 251 220 210 200 201 212 210 210 268 327 341 346 342 334 329 332 332 330 329 330 329 328 327 327 326 326 327
259 265 253 264 259 267 262 248 259 274 279 281 281 280 283 287 281 252 216 197 206 211 211 211 244 304 329 334 335 335 334 330 330 329 329 330 332 331 330 330 330 330 329 329
262 265 275 256 260 251 260 249 248 272 285 286 285 291 297 298 279 219 206 194 201 207 198 216 272 320 326 329 330 332 329 327 327 328 328 328 330 330 330 331 330 328 327 326
261 268 272 268 255 250 242 261 251 264 272 276 282 284 287 283 256 226 198 200 202 210 217 235 283 312 324 329 333 333 329 326 328 330 332 333 332 332 331 329 328 327 325 325
250 262 273 267 254 230 247 237 248 258 266 275 286 286 286 250 218 203 208 209 211 220 237 260 294 314 324 329 329 327 324 326 327 330 330 329 328 326 326 326 325 325 323 321
237 259 259 257 279 251 231 243 241 249 263 262 278 281 298 253 228 216 215 215 226 240 255 274 293 307 317 322 322 322 323 324 329 330 330 328 327 327 326 325 325 324 322 321
236 253 261 263 258 269 221 228 235 255 266 260 262 274 291 251 235 230 217 228 242 257 271 285 299 309 314 318 320 322 324 325 328 328 327 326 327 327 326 325 325 324 323 322
229 252 250 256 272 254 245 237 234 236 247 261 259 279 269 253 238 238 236 239 249 260 274 290 301 310 317 320 321 322 324 326 328 329 329 329 329 329 329 330 330 331 331 331
241 252 255 259 271 263 245 248 238 233 242 249 261 269 260 251 245 238 236 245 254 265 276 289 301 310 316 319 321 323 325 327 329 329 330 330 331 331 331 330 330 330 330 329
256 258 252 254 262 269 263 255 244 253 257 260 271 270 258 249 255 244 244 250 257 266 281 292 303 310 315 318 321 325 327 328 330 330 330 331 330 329 329 328 329 329 328 326
253 251 251 252 261 267 265 250 250 259 259 262 263 274 269 255 247 242 249 251 258 268 282 295 304 310 316 321 325 326 327 329 331 332 333 331 331 330 331 331 331 330 329 329
253 252 258 257 258 260 273 268 262 264 266 268 275 278 257 254 261 256 257 253 263 275 288 299 308 314 320 325 326 327 330 332 332 331 331 331 332 332 334 336 335 334 335 335
256 251 260 259 258 273 273 272 262 264 272 273 274 273 264 251 261 264 257 262 269 282 295 305 314 318 322 325 328 330 331 331 331 331 333 335 336 335 338 339 339 341 341 343
255 256 257 266 262 263 276 274 274 280 276 278 270 266 256 245 252 262 259 261 277 292 301 308 316 321 324 328 330 330 329 330 332 335 337 339 341 341 342 343 345 348 351 352
252 257 257 261 265 272 275 282 274 271 284 286 260 250 246 252 268 244 254 274 287 297 304 313 319 322 326 330 329 329 331 333 334 337 339 341 345 345 346 347 350 352 356 356
254 254 262 262 265 269 271 270 265 281 289 286 253 242 254 263 239 236 255 270 284 295 307 315 319 323 329 331 333 332 332 333 336 337 340 343 344 344 347 348 351 353 355 352
258 260 264 262 269 280 273 279 276 276 272 279 244 219 210 221 225 234 253 269 290 303 313 320 324 327 332 335 335 334 335 338 338 340 340 339 338 341 344 345 349 351 352 350
263 264 267 272 271 274 271 277 276 266 268 269 246 188 185 199 219 255 276 292 302 310 316 324 329 331 333 336 338 340 342 346 346 346 343 337 338 340 341 345 347 349 351 348
267 260 264 270 275 276 269 259 256 263 260 257 262 239 229 234 264 279 291 299 307 315 324 330 332 332 333 338 342 346 350 351 351 348 344 342 345 342 341 344 345 345 347 346
259 264 260 269 266 266 256 247 239 243 252 251 251 278 285 285 284 294 300 306 313 322 328 329 330 332 336 340 345 349 352 352 349 344 343 344 344 344 343 342 344 347 347 345